Temperature
5 5 5 5 5 4 4 4 3 2 3 4 5 5 5 5 6 6 6 6 7 7 7 7 7 7 7 7 7 7 7 7 7 7 7 7 7 7
5 5 5 4 4 4 4 3 3 2 2 3 4 4 4 4 5 5 5 6 6 6 6 6 6 6 6 6 6 6 6 7 7 7 6 7 7 7
4 4 4 4 4 3 3 3 3 2 2 3 3 4 4 4 4 5 5 5 5 6 6 6 6 6 6 6 6 6 6 6 6 6 6 6 6 6
4 4 4 3 3 3 3 2 2 2 2 2 3 3 3 3 3 4 4 4 4 5 5 5 5 5 5 5 5 5 5 5 6 6 6 5 6 6
3 3 3 3 2 2 2 2 2 2 2 1 2 2 2 2 2 3 3 3 4 4 4 4 5 5 5 5 5 5 5 5 5 5 5 5 5 5
3 2 2 2 2 2 2 2 1 1 1 1 1 1 1 2 2 2 2 3 3 3 4 4 4 4 4 4 4 4 4 4 4 4 4 4 4 4
2 2 2 1 1 1 1 1 1 1 0 0 0 0 0 1 1 1 1 2 2 2 3 3 3 3 4 4 4 4 4 4 4 4 4 4 4 4
1 1 1 1 1 1 1 1 0 -0 -0 -0 -1 -1 -0 -0 0 0 0 1 1 2 2 3 3 3 3 3 3 4 4 3 3 3 3 3 3 3
1 1 0 0 0 0 0 0 0 -0 -1 -1 -1 -1 -1 -0 -0 -0 0 0 0 1 1 2 2 2 3 3 3 3 3 3 3 3 3 3 3 3
0 0 -0 -0 -0 -0 -0 -0 -0 -0 -1 -1 -1 -1 -1 -1 -1 -0 -0 -0 0 1 1 1 1 2 2 2 2 2 2 2 2 2 2 2 2 2
-0 -0 -1 -1 -1 -1 -1 -1 -1 -1 -1 -1 -1 -1 -1 -1 -1 -1 -1 -1 -0 0 0 -0 0 1 1 1 2 2 2 2 2 2 2 2 2 2
-1 -1 -1 -1 -1 -1 -2 -1 -2 -1 -1 -1 -1 -1 -1 -1 -1 -1 -1 -1 -1 -1 -0 -1 -0 -0 -0 0 1 1 1 1 1 1 1 1 1 1
-1 -1 -1 -2 -2 -2 -2 -2 -2 -2 -2 -2 -1 -1 -1 -1 -1 -1 -1 -1 -1 -1 -1 -1 -1 -1 -1 -1 -0 0 0 0 0 1 1 1 1 1
-2 -2 -2 -2 -2 -2 -2 -2 -2 -2 -2 -2 -2 -2 -2 -1 -1 -1 -1 -1 -1 -1 -1 -1 -1 -1 -1 -1 -1 -1 -1 -1 -0 -0 -0 -0 0 0
-3 -3 -3 -3 -3 -3 -3 -3 -3 -3 -3 -3 -3 -2 -2 -2 -2 -2 -2 -1 -1 -1 -1 -1 -1 -1 -1 -1 -2 -2 -2 -1 -1 -1 -1 -1 -1 -0
-3 -3 -3 -3 -3 -3 -3 -3 -3 -3 -3 -3 -3 -3 -3 -2 -2 -2 -2 -2 -2 -2 -2 -2 -2 -2 -2 -2 -2 -2 -2 -2 -2 -2 -1 -1 -1 -1
-3 -3 -3 -3 -3 -3 -3 -3 -3 -3 -3 -3 -3 -3 -3 -3 -3 -2 -2 -2 -2 -2 -2 -2 -2 -2 -2 -2 -2 -2 -2 -2 -2 -2 -2 -2 -2 -1
-4 -4 -4 -4 -4 -4 -4 -4 -4 -4 -4 -4 -4 -4 -3 -3 -3 -3 -3 -3 -3 -3 -3 -3 -3 -3 -3 -3 -3 -3 -3 -3 -3 -3 -2 -2 -2 -2
-4 -4 -4 -5 -5 -5 -5 -5 -5 -4 -4 -4 -4 -4 -4 -4 -4 -3 -3 -3 -3 -4 -3 -3 -3 -3 -4 -4 -4 -3 -3 -3 -3 -3 -3 -3 -3 -3
-4 -5 -5 -5 -5 -5 -5 -5 -5 -5 -5 -5 -4 -4 -4 -4 -4 -4 -4 -4 -4 -4 -4 -4 -4 -4 -4 -4 -4 -4 -3 -3 -3 -3 -3 -3 -3 -3
-5 -5 -5 -5 -5 -5 -5 -5 -5 -5 -5 -5 -5 -5 -5 -5 -5 -4 -4 -4 -4 -4 -4 -4 -4 -4 -4 -4 -4 -4 -4 -4 -4 -4 -4 -4 -4 -3
-5 -6 -6 -5 -5 -5 -5 -5 -5 -5 -5 -5 -5 -5 -5 -5 -5 -5 -5 -5 -5 -5 -5 -5 -4 -4 -4 -4 -5 -5 -5 -4 -4 -4 -4 -4 -4 -4
-6 -6 -6 -6 -6 -6 -6 -5 -5 -5 -5 -5 -6 -5 -5 -5 -5 -5 -5 -5 -5 -5 -5 -5 -5 -5 -5 -5 -5 -5 -5 -5 -5 -4 -4 -4 -4 -4
Wind_Speed
6 6 6 5 5 5 4 4 5 8 8 5 4 4 6 7 10 10 10 15 17 17 17 17 16 16 16 16 16 16 16 14 14 15 16 18 19 19
5 6 6 5 5 5 5 5 6 7 9 5 6 6 6 8 11 10 11 15 16 16 16 16 16 16 16 16 16 16 15 14 14 16 16 17 17 17
6 7 7 6 5 5 5 5 6 6 10 9 6 6 6 8 9 9 10 9 10 15 16 15 15 14 14 14 14 15 15 14 14 14 15 16 16 16
7 7 7 6 6 6 5 6 7 7 8 12 9 6 7 7 8 8 8 9 9 13 15 15 14 13 13 13 12 13 13 13 14 14 15 15 16 16
7 7 7 7 7 6 7 7 7 7 7 9 10 7 6 6 7 7 7 7 8 10 12 13 12 12 12 12 12 11 11 11 12 13 13 14 15 15
7 7 7 7 8 8 7 7 7 7 7 8 9 8 7 6 5 7 7 6 6 6 8 9 10 10 11 11 10 10 10 10 11 12 13 13 13 13
7 7 7 9 10 9 7 6 6 7 7 7 8 8 7 6 6 5 7 6 6 4 4 5 6 6 6 9 9 9 10 10 11 11 12 12 12 13
7 7 8 8 10 11 12 12 10 9 8 8 8 9 9 7 6 7 6 6 6 3 4 6 4 5 5 5 8 9 9 9 9 10 10 11 11 11
7 7 7 8 10 8 10 12 12 13 13 10 10 10 9 8 8 8 7 7 8 5 4 6 4 6 5 6 8 8 8 8 8 9 10 10 9 9
7 7 8 8 8 9 8 8 9 10 11 10 10 10 10 8 8 8 8 7 6 4 3 5 4 4 4 4 6 7 6 6 6 7 8 8 8 8
7 7 7 8 12 13 9 9 9 9 10 13 13 13 14 13 9 5 5 4 6 5 2 3 2 3 3 3 4 5 5 5 6 7 7 7 6 6
6 6 9 10 13 13 8 7 9 8 7 8 9 10 9 9 10 6 5 5 4 4 3 2 2 2 2 2 2 3 3 4 5 5 5 6 5 3
6 5 6 12 13 13 10 7 10 9 7 7 6 6 5 5 4 4 3 4 4 5 3 2 2 2 2 2 2 2 2 2 2 3 4 4 4 3
6 5 6 11 12 12 9 9 11 9 5 5 5 5 5 5 4 4 4 3 4 5 5 3 2 3 2 3 3 2 2 2 2 2 2 3 2 3
6 9 10 11 10 8 9 10 8 5 4 5 5 5 4 5 4 3 2 2 2 3 3 3 3 2 2 2 2 2 2 2 2 1 2 1 1 1
6 7 9 9 7 7 7 6 4 4 4 4 5 4 4 4 4 2 3 2 2 2 3 2 1 1 1 1 1 2 2 1 2 2 2 2 1 1
5 3 3 4 4 4 4 4 4 4 4 3 3 4 4 4 4 3 2 2 1 1 2 2 2 2 1 1 1 1 1 1 1 2 2 2 2 2
5 3 4 4 4 5 5 5 4 4 3 3 3 3 4 4 4 3 2 1 1 1 1 1 1 2 2 3 2 0 1 1 2 2 1 1 2 3
4 3 4 4 4 4 4 4 4 4 4 3 3 3 3 3 3 3 2 1 1 1 1 1 1 1 1 2 3 3 0 1 2 2 2 1 1 3
3 4 4 4 4 4 4 4 4 4 4 3 3 3 3 3 3 2 2 1 1 1 1 2 1 1 0 1 0 2 3 1 1 1 2 2 1 3
4 4 4 5 5 4 4 4 3 4 4 3 3 3 3 3 2 2 2 2 1 1 1 1 1 2 1 2 2 2 2 4 2 1 1 1 2 2
4 5 5 5 5 4 3 3 3 3 3 3 3 3 3 2 2 2 2 1 0 0 0 1 1 2 2 2 2 1 2 3 5 6 4 1 0 0
5 5 5 5 4 4 3 3 3 3 3 3 3 3 2 2 2 1 1 1 1 1 1 1 2 2 2 2 2 2 2 3 3 4 4 6 4 3
Wind_Direction
243 241 244 246 242 244 248 251 264 281 280 262 266 269 278 281 281 284 281 281 279 276 272 266 264 262 262 263 263 262 260 256 250 248 247 245 247 247
245 244 247 249 248 244 245 250 249 260 275 274 270 279 281 288 288 287 282 284 280 277 275 269 265 264 261 258 256 257 254 253 251 248 249 249 246 247
254 252 252 248 250 252 250 251 254 256 272 283 276 278 272 277 287 285 282 279 279 278 277 272 267 265 263 257 252 251 250 249 248 247 248 250 250 249
258 255 255 254 250 250 249 252 256 257 265 282 288 285 274 274 278 279 283 283 279 278 276 273 269 267 264 260 256 253 250 248 246 244 244 249 250 250
262 258 259 256 257 258 254 255 258 263 262 274 283 285 283 282 284 285 282 278 282 280 276 274 270 267 265 262 257 253 249 247 245 243 241 244 248 252
270 261 256 253 256 260 260 258 262 264 267 272 281 287 287 285 279 285 289 282 283 286 281 285 281 276 270 267 261 256 252 248 246 246 244 243 245 248
277 271 262 264 267 266 269 264 265 268 271 275 281 286 287 294 287 284 282 286 284 268 280 286 286 280 274 267 261 257 253 249 246 248 247 245 244 245
283 284 278 269 274 276 278 277 272 268 269 269 276 279 282 284 287 285 284 288 286 262 272 286 280 279 278 269 266 260 254 252 250 251 250 247 247 246
278 279 285 286 286 271 276 279 275 276 272 266 268 271 276 277 276 275 275 278 275 274 279 281 277 276 284 279 274 260 257 256 257 256 251 246 245 247
272 266 272 278 281 282 274 272 268 268 271 269 263 266 269 271 266 265 269 274 281 280 256 263 272 280 296 290 281 271 269 263 259 261 258 253 250 251
272 270 274 274 286 294 287 281 282 280 281 280 281 281 283 283 280 275 270 275 284 282 246 242 268 301 299 287 286 290 285 283 279 274 265 256 250 250
282 275 281 287 292 295 286 281 285 290 295 296 291 292 290 288 283 261 251 262 279 274 242 231 263 311 298 290 297 303 296 288 286 283 277 257 246 239
288 284 282 293 295 296 295 281 284 293 289 288 289 290 293 290 284 272 260 249 255 263 250 233 266 278 253 288 308 309 309 304 304 298 292 270 255 235
287 287 290 298 299 299 298 294 298 302 294 291 291 292 296 301 295 285 278 270 265 258 251 244 251 252 253 281 287 314 334 334 326 320 319 295 269 253
292 301 306 309 307 300 301 305 305 295 291 291 290 291 292 291 291 296 302 301 322 311 289 269 249 249 250 246 253 289 313 326 325 332 330 307 280 254
299 303 311 313 313 309 307 306 300 289 288 284 290 295 302 307 302 300 299 309 331 335 343 329 286 230 237 247 220 266 297 289 321 331 333 335 329 290
313 310 318 316 316 314 314 309 306 306 302 297 297 302 309 315 315 319 307 311 307 301 333 2 35 52 47 212 224 288 334 342 333 335 343 348 343 332
329 319 313 311 312 314 314 314 311 307 302 298 299 298 303 312 319 328 327 326 328 318 324 341 36 40 40 33 12 185 17 355 345 344 351 1 346 341
334 318 313 310 308 308 306 304 307 308 305 302 301 304 309 316 316 319 325 329 335 335 331 328 344 76 73 344 352 8 32 339 349 351 353 1 323 318
330 317 313 311 308 304 302 302 305 309 312 311 311 313 317 320 317 316 312 311 332 6 9 2 6 10 191 211 272 333 350 350 356 342 339 342 324 318
321 315 311 310 310 308 307 307 309 311 314 317 316 317 321 323 319 320 319 321 352 22 4 339 326 359 78 83 76 19 5 9 11 311 322 347 341 349
316 314 313 312 312 311 315 318 320 318 318 318 318 321 324 322 317 317 318 323 346 47 40 10 17 46 68 96 98 73 18 8 18 22 8 333 262 345
317 314 314 315 314 315 315 314 313 312 310 313 317 321 321 320 323 322 322 323 98 104 92 72 51 59 76 100 99 77 38 7 11 20 12 11 23 12
Height
1436 1435 1435 1434 1433 1433 1432 1431 1430 1424 1419 1418 1419 1418 1418 1417 1416 1414 1413 1411 1411 1409 1408 1408 1408 1408 1408 1408 1409 1410 1411 1413 1414 1415 1416 1419 1421 1423
1430 1429 1428 1427 1427 1426 1425 1425 1424 1421 1415 1412 1412 1412 1411 1410 1409 1407 1406 1404 1403 1402 1401 1400 1399 1399 1399 1400 1401 1402 1403 1404 1405 1407 1409 1411 1412 1414
1424 1423 1421 1421 1420 1419 1418 1418 1417 1415 1411 1406 1406 1405 1404 1402 1401 1400 1398 1397 1395 1394 1393 1392 1391 1391 1390 1391 1392 1393 1395 1396 1397 1399 1401 1402 1404 1406
1417 1416 1415 1414 1413 1412 1411 1410 1410 1408 1406 1400 1398 1398 1396 1395 1393 1392 1390 1389 1387 1386 1385 1384 1384 1383 1383 1384 1384 1385 1386 1387 1389 1391 1393 1395 1396 1398
1410 1409 1408 1407 1406 1405 1404 1403 1402 1401 1399 1396 1392 1391 1389 1388 1386 1384 1383 1381 1380 1379 1378 1377 1376 1376 1376 1376 1377 1378 1379 1380 1381 1382 1384 1386 1387 1389
1404 1403 1402 1401 1399 1398 1397 1396 1395 1394 1392 1390 1386 1384 1382 1381 1380 1377 1375 1373 1372 1371 1371 1370 1369 1369 1369 1369 1369 1370 1371 1372 1373 1374 1375 1377 1379 1380
1398 1396 1395 1394 1393 1392 1391 1389 1388 1387 1385 1383 1380 1378 1376 1374 1373 1372 1369 1367 1365 1365 1363 1363 1362 1361 1361 1361 1362 1362 1363 1364 1365 1366 1367 1368 1370 1372
1391 1390 1389 1387 1386 1385 1384 1383 1382 1380 1378 1377 1374 1372 1370 1369 1367 1366 1364 1362 1358 1359 1357 1356 1356 1354 1354 1354 1354 1355 1356 1356 1357 1358 1359 1361 1362 1364
1385 1384 1382 1381 1380 1378 1377 1376 1375 1374 1373 1371 1368 1366 1364 1363 1362 1360 1358 1356 1354 1353 1352 1349 1349 1348 1348 1348 1348 1348 1349 1349 1350 1351 1352 1353 1354 1356
1380 1378 1376 1374 1373 1372 1370 1368 1367 1366 1365 1364 1362 1360 1359 1357 1356 1355 1353 1351 1349 1348 1347 1344 1343 1342 1342 1342 1342 1342 1342 1343 1343 1344 1345 1346 1347 1349
1374 1372 1370 1369 1367 1366 1365 1362 1360 1359 1358 1357 1356 1354 1352 1351 1350 1349 1347 1345 1342 1341 1342 1340 1338 1337 1336 1336 1336 1336 1337 1337 1337 1338 1338 1339 1341 1342
1368 1367 1365 1363 1362 1361 1359 1357 1354 1353 1351 1349 1348 1347 1346 1345 1344 1343 1341 1340 1338 1336 1336 1336 1334 1334 1331 1330 1331 1331 1331 1332 1332 1332 1333 1334 1335 1336
1363 1361 1359 1358 1356 1355 1354 1352 1350 1348 1346 1344 1342 1341 1340 1338 1337 1337 1336 1335 1334 1333 1332 1332 1330 1330 1330 1327 1326 1327 1327 1327 1327 1327 1328 1329 1330 1331
1359 1357 1354 1353 1351 1350 1348 1346 1345 1343 1341 1339 1337 1335 1334 1333 1332 1331 1331 1331 1330 1329 1328 1328 1326 1326 1325 1324 1323 1323 1323 1324 1323 1323 1324 1325 1325 1327
1354 1352 1350 1348 1346 1344 1343 1341 1340 1338 1336 1334 1332 1331 1330 1329 1328 1327 1326 1325 1325 1325 1324 1324 1323 1323 1322 1321 1320 1320 1320 1320 1321 1321 1321 1321 1322 1322
1350 1348 1346 1343 1342 1340 1338 1337 1335 1333 1332 1330 1328 1327 1326 1325 1324 1323 1321 1321 1320 1320 1320 1320 1320 1320 1319 1319 1319 1318 1318 1318 1318 1319 1319 1319 1319 1320
1346 1343 1341 1339 1337 1335 1334 1332 1331 1329 1328 1327 1325 1323 1322 1321 1320 1319 1318 1318 1317 1316 1316 1316 1317 1317 1317 1317 1316 1317 1317 1317 1317 1317 1317 1317 1317 1318
1343 1340 1338 1336 1334 1332 1330 1329 1327 1326 1325 1323 1322 1321 1319 1318 1317 1316 1316 1315 1314 1314 1314 1314 1314 1314 1315 1315 1317 1316 1316 1316 1316 1316 1316 1315 1316 1317
1340 1337 1335 1333 1332 1330 1328 1326 1324 1323 1322 1321 1320 1318 1317 1316 1315 1314 1313 1313 1312 1312 1313 1313 1313 1313 1313 1313 1315 1317 1316 1316 1316 1316 1315 1315 1315 1316
1337 1335 1333 1332 1330 1328 1326 1324 1322 1321 1320 1318 1317 1316 1315 1314 1313 1312 1311 1311 1311 1311 1311 1312 1312 1312 1313 1313 1314 1315 1316 1316 1315 1315 1315 1315 1315 1316
1336 1334 1332 1330 1328 1326 1324 1322 1321 1319 1318 1317 1315 1314 1313 1312 1311 1310 1310 1310 1310 1310 1310 1311 1312 1313 1313 1313 1314 1314 1316 1317 1317 1316 1315 1314 1314 1313
1334 1332 1330 1328 1326 1324 1323 1321 1319 1318 1316 1315 1314 1313 1312 1311 1310 1309 1309 1309 1309 1309 1310 1310 1311 1312 1312 1313 1313 1314 1315 1316 1316 1316 1316 1315 1314 1313
1333 1331 1329 1327 1325 1323 1321 1320 1318 1316 1315 1314 1312 1311 1310 1309 1309 1308 1308 1308 1308 1309 1309 1310 1311 1312 1312 1313 1314 1314 1315 1315 1315 1315 1315 1315 1315 1315